Jerome, ID

7:51 AM MST on February 20, 2017 (GMT -0700)
Jerome County

Weather History for KJER - March, 2013

Change the Weather History Date:

Sunday, March 3, 2013

  Actual Average Record
Temperature  
Mean Temperature 37 °F 36 °F  
Max Temperature 47 °F 45 °F 68 °F (1987)
Min Temperature 27 °F 27 °F 6 °F (1952)
Degree Days  
Heating Degree Days 28 29  
Month to date heating degree days 74 88  
Since 1 July heating degree days 4699 4975  
Cooling Degree Days 0 0  
Month to date cooling degree days 0 0  
Year to date cooling degree days 0 0  
Moisture  
Dew Point 29 °F    
Average Humidity 66    
Maximum Humidity 100    
Minimum Humidity 32    
Precipitation  
Precipitation 0.07 in 0.03 in 0.53 in (1972)
Month to date precipitation 0.07 0.08  
Year to date precipitation 1.06 2.02  
Sea Level Pressure  
Sea Level Pressure 29.99 in    
Wind  
Wind Speed 16 mph (WSW)    
Max Wind Speed 32 mph    
Max Gust Speed 41 mph    
Visibility 9 miles    
Events Rain    
T = Trace of Precipitation, MM = Missing Value Source: NWS Daily Summary

Daily Weather History Graph

Daily Weather History Graph

Search for Another Location

Airport or City:

Trip Planner

Search our weather history database for the weather conditions in past years. The results will help you decide how hot, cold, wet, or windy it might be!

Date:

Astronomy

Mar. 03, 2013 Rise Set
Actual Time 7:09 AM MST 6:30 PM MST
Civil Twilight 6:41 AM MST 6:58 PM MST
Nautical Twilight 6:08 AM MST 7:31 PM MST
Astronomical Twilight 5:36 AM MST 8:04 PM MST
Moon 12:22 AM MST (3/3) 10:19 AM MST (3/3)
Length of Visible Light 12h 17m
Length of Day
11h 20m
Waning Gibbous, 63% of the Moon is Illuminated
Mar 3
Waning Gibbous
Mar 4
Last Quarter
Mar 11
New
Mar 19
First Quarter
Mar 27
Full

Hourly Weather History & Observations

Time (MST) Temp. Windchill Dew Point Humidity Pressure Visibility Wind Dir Wind Speed Gust Speed Precip Events Conditions
12:53 AM 37.9 °F 30.9 °F 32.0 °F 79% 30.03 in 10.0 mi NE 10.4 mph - N/A   Overcast
1:53 AM 39.0 °F 32.3 °F 33.1 °F 79% 29.99 in 10.0 mi NNE 10.4 mph - N/A   Overcast
2:53 AM 39.9 °F 35.1 °F 33.1 °F 77% 29.97 in 10.0 mi East 6.9 mph - N/A   Overcast
3:53 AM 42.1 °F 37.1 °F 33.1 °F 70% 29.95 in 10.0 mi SE 8.1 mph - N/A   Overcast
5:53 AM 39.0 °F 32.3 °F 35.1 °F 86% 29.99 in 10.0 mi SW 10.4 mph - N/A   Overcast
6:53 AM 37.9 °F 32.1 °F 37.0 °F 97% 30.01 in 10.0 mi SW 8.1 mph - 0.00 in Rain Light Rain
7:53 AM 39.0 °F 32.3 °F 37.9 °F 96% 30.00 in 7.0 mi WSW 10.4 mph - 0.02 in Rain Light Rain
8:02 AM 39.2 °F 32.5 °F 37.4 °F 93% 29.98 in 6.0 mi WSW 10.4 mph - 0.00 in Rain Light Rain
8:50 AM 39.2 °F 31.6 °F 37.4 °F 93% 29.98 in 2.5 mi SW 12.7 mph - 0.03 in Rain Light Rain
8:53 AM 39.0 °F 30.6 °F 37.9 °F 96% 30.01 in 2.5 mi SW 15.0 mph - 0.03 in Rain Light Rain
9:23 AM 39.2 °F 31.2 °F 39.2 °F 100% 29.98 in 1.5 mi SW 13.8 mph - 0.01 in Rain Light Rain
9:30 AM 39.2 °F 31.2 °F 39.2 °F 100% 29.98 in 3.0 mi SW 13.8 mph - 0.01 in Rain Light Rain
9:53 AM 39.9 °F 30.8 °F 39.0 °F 97% 30.00 in 8.0 mi SW 18.4 mph 24.2 mph 0.02 in Rain Light Rain
10:03 AM 39.2 °F 29.8 °F 39.2 °F 100% 29.97 in 10.0 mi WSW 18.4 mph - 0.00 in Rain Light Rain
10:53 AM 41.0 °F 31.6 °F 37.9 °F 89% 30.00 in 10.0 mi WSW 20.7 mph 26.5 mph 0.00 in   Overcast
11:08 AM 41.0 °F 31.6 °F 37.4 °F 87% 29.97 in 10.0 mi WSW 20.7 mph 25.3 mph N/A   Overcast
11:53 AM 42.1 °F 33.3 °F 37.0 °F 82% 29.98 in 10.0 mi WSW 19.6 mph 28.8 mph N/A   Overcast
12:15 PM 42.8 °F 34.3 °F 35.6 °F 76% 29.96 in 10.0 mi West 19.6 mph - N/A   Overcast
12:53 PM 39.9 °F 31.4 °F 34.0 °F 79% 29.98 in 10.0 mi West 16.1 mph 27.6 mph N/A   Overcast
1:07 PM 41.0 °F 31.4 °F 33.8 °F 76% 29.95 in 10.0 mi WSW 21.9 mph 25.3 mph 0.00 in   Overcast
1:53 PM 46.9 °F - 34.0 °F 61% 29.93 in 10.0 mi WSW 24.2 mph 31.1 mph 0.00 in   Mostly Cloudy
2:53 PM 45.0 °F 35.4 °F 28.0 °F 52% 29.93 in 10.0 mi WSW 28.8 mph 40.3 mph N/A   Partly Cloudy
3:53 PM 44.1 °F 33.8 °F 21.0 °F 40% 29.93 in 10.0 mi West 31.1 mph 38.0 mph N/A   Clear
4:53 PM 42.1 °F 32.3 °F 21.0 °F 43% 29.93 in 10.0 mi West 24.2 mph 35.7 mph N/A   Clear
5:53 PM 39.0 °F 27.8 °F 15.1 °F 38% 29.95 in 10.0 mi West 26.5 mph 35.7 mph N/A   Clear
6:53 PM 37.0 °F 26.4 °F 10.0 °F 33% 29.98 in 10.0 mi WSW 20.7 mph 27.6 mph N/A   Partly Cloudy
7:53 PM 34.0 °F 23.8 °F 10.0 °F 37% 30.00 in 10.0 mi SW 16.1 mph - N/A   Clear
8:53 PM 32.0 °F 22.1 °F 10.9 °F 42% 30.03 in 10.0 mi WSW 13.8 mph - N/A   Clear
9:53 PM 30.0 °F 20.5 °F 10.9 °F 45% 30.05 in 10.0 mi SW 11.5 mph - N/A   Clear
10:53 PM 28.0 °F 16.5 °F 12.0 °F 51% 30.06 in 10.0 mi WSW 15.0 mph - N/A   Clear
11:53 PM 28.0 °F 16.1 °F 12.9 °F 53% 30.07 in 10.0 mi WSW 16.1 mph 24.2 mph N/A   Clear